星链-4556 (STARLINK-4556 )

导读 | 星芒AI

STARLINK-4556 是 SpaceX Starlink 卫星互联网项目中的一颗低轨卫星,属于第53批发射的星链卫星群。该卫星运行在约550公里高度的近地轨道,旨在为全球用户提供高速互联网服务。作为星链计划的一部分,STARLINK-4556 采用先进通信技术,支持宽带数据传输,提升偏远地区的网络接入能力。该卫星于2023年发射,是SpaceX构建全球卫星互联网网络的重要组成部分。

基本信息
目录编号:
53578
目录名称:
STARLINK-4556
国际标识:
2022-101BD
轨道中心:
EARTH
卫星名称:
星链-4556
卫星全名:
星链-4556 (STARLINK-4556 )
卫星状态:
在轨 (已飞行1174 天)
发射日期:
2022-08-19 UTC
国别 :
美国 (US)
星等 :
--
轨道信息
数据来源 国际轨道数据
星历时间: 2025-11-04T22:00:51+0800
13小时前
查看轨道信息
半长轴: 6917.876km
偏心率: 0.0001424
轨道倾角: 53.217°
近地点辐角 83.052°
升交点赤经 255.375°
平近点角 277.063°
近地点: 538.755km
远地点: 540.727km
周期: 95.437分钟
每日圈数: 15.088417
详细信息
固有亮度:
5
最大亮度:
2.5
卫星平台:
Starlink v1.5
覆盖范围:
全球
运营商:
太空探索技术公司
运营商所在国:
美国
制造商(研发单位):
太空探索技术公司
制造商所在国:
美国
使用方式:
暂无
卫星简介
星链(Starlink)计划是由太空探索技术公司(SpaceX)提出的一个巨型低轨卫星互联网星座项目,计划在2019年至2024年间在太空搭建由约1.2万颗卫星组成的“星链”网络,其中1584颗将部署在地球上空550千米处的近地轨道,并从2020年开始工作。该卫星仍在工作。
2D轨道图
3D轨道图
轨道高度分析图
轨道倾角分析图
轨道综合分析图
查看轨道综合分析图